Regional Weather Roundup
Issued by NWS Midland/Odessa, TX

Current Version | Previous Version | Text Only | Print | Product List | Glossary On
Versions: 1 2 3 4 5 6 7 8 9 10 11 12 13 14 15 16 17 18 19 20 21 22 23 24 25 26 27 28 29 30 31 32 33 34 35 36 37 38 39 40 41 42 43 44 45 46 47 48 49 50
000
ASUS44 KMAF 291510
RWRMAF
MIDLAND AREA WEATHER ROUNDUP
NATIONAL WEATHER SERVICE MIDLAND TX
1000 AM CDT SAT AUG 29 2015

...IN SOUTHWEST TEXAS AND SOUTHEAST NEW MEXICO...

CITY           SKY/WX    TMP DP  RH WIND       PRES   REMARKS
ALPINE         CLOUDY    71  55  56 CALM      30.26R
ANDREWS        RAIN      69  65  88 NE3       30.20R
ARTESIA        SUNNY     72  64  78 NE5       30.22R
BIG SPRING     CLOUDY    70  62  76 NW6       30.15S
CARLSBAD       SUNNY     77  61  57 N9        30.18R
DRYDEN           N/A     74  62  66 VRB7      30.08S
FORT STOCKTON  CLOUDY    74  53  48 CALM      30.14R
GUAD PASS      SUNNY     70  57  63 NE20      30.28R
HOBBS          PTSUNNY   68  68 100 N3        30.21R
MARFA          CLOUDY    72  55  56 N3        30.24R
MIDLAND AIRPK  CLOUDY    73  65  74 NW12      30.16R
MIDLAND INTL   LGT RAIN  71  65  81 NW12      30.16R
ODESSA         CLOUDY    73  62  68 N12       30.17R
PECOS          CLOUDY    74  62  65 N8        30.13S
PRESIDIO       NOT AVBL
SEMINOLE       CLOUDY    71  64  77 CALM      30.20R
SNYDER         CLOUDY    77  62  58 W5        30.12R
WINK           CLOUDY    75  63  66 NE7       30.14R
$$
...OTHER STATIONS IN TEXAS...

CITY           SKY/WX    TMP DP  RH WIND       PRES   REMARKS
ABILENE        PTSUNNY   84  57  39 SW15G21   30.07R
AMARILLO       PTSUNNY   76  60  57 N10       30.17R
AUSTIN         MOSUNNY   80  66  62 SW6       30.06R
BROWNSVILLE    SUNNY     86  68  54 VRB5      30.01R
CORPUS CHRISTI MOSUNNY   83  65  54 VRB3      30.02S
DALLAS FTW     PTSUNNY   86  65  49 S8        30.01R
DEL RIO        SUNNY     78  65  63 SE9       30.04R
EL PASO        MOSUNNY   76  60  57 NE6       30.18R
HOUSTON INT    MOSUNNY   82  68  62 CALM      30.06R
LUBBOCK        LGT RAIN  72  65  78 SW10      30.16R
SAN ANGELO     CLOUDY    79  61  53 SW7       30.10S
SAN ANTONIO    SUNNY     80  64  58 W7        30.07R
WACO           PTSUNNY   82  64  54 SW10      30.04S
WICHITA FALLS  NOT AVBL
$$
...OTHER LOCATIONS IN NEW MEXICO...

CITY           SKY/WX    TMP DP  RH WIND       PRES   REMARKS
ALAMAGORDO     SUNNY     73  57  56 S3        30.20S
ALBUQUERQUE    MOSUNNY   71  51  49 N7        30.31S
CANNON AFB     MOSUNNY   78  56  47 NE14      30.19S
CLOVIS         MOSUNNY   73  57  56 N13       30.21S
HOLLOMAN AFB   SUNNY     76  55  48 CALM      30.18R
ROSWELL        PTSUNNY   69  62  78 E3        30.21R
RUIDOSO        SUNNY     66  48  52 MISG      30.40R
SANTA FE       SUNNY     69  51  52 NE6       30.38R
TRUTH OR CONSE MOSUNNY   73  56  54 NE10      30.24R
TUCUMCARI      SUNNY     75  57  53 NW7       30.20S
$$




USA.gov is the U.S. government's official web portal to all federal, state and local government web resources and services.